• In Hungary
  • List of Countries
  • For 7 days
  • Water Temperature
  • Satellite Maps
  • Weather Map
  • News
  • Weather Widgets
  • user-avatar
    Login

    Hourly Weather Ogorkowo

    Today, 23 September, Sunday

    Time Temperature Precipitation Wind Pressure Humidity
    00:00 +10°C° 0 mm 2 mps 719 mmHg 67%
    01:00 +11°C° 0 mm 3 mps 719 mmHg 66%
    02:00 +10°C° 0.1 mm 3 mps 719 mmHg 69%
    03:00 +10°C° 0.1 mm 3 mps 719 mmHg 72%
    04:00 +10°C° 0.1 mm 3 mps 718 mmHg 74%
    05:00 +10°C° 0 mm 3 mps 718 mmHg 73%
    06:00 +10°C° 0 mm 3 mps 718 mmHg 72%
    07:00 +10°C° 0 mm 3 mps 718 mmHg 68%
    08:00 +12°C° 0 mm 4 mps 718 mmHg 62%
    09:00 +13°C° 0 mm 4 mps 718 mmHg 57%
    10:00 +14°C° 0 mm 5 mps 718 mmHg 51%
    11:00 +14°C° 0 mm 5 mps 718 mmHg 53%
    12:00 +14°C° 0 mm 5 mps 717 mmHg 56%
    13:00 +14°C° 0 mm 5 mps 717 mmHg 57%
    14:00 +14°C° 0.1 mm 5 mps 716 mmHg 62%
    15:00 +13°C° 0.1 mm 5 mps 715 mmHg 67%
    16:00 +12°C° 0.1 mm 5 mps 714 mmHg 71%
    17:00 +12°C° 0 mm 5 mps 713 mmHg 72%
    18:00 +12°C° 0 mm 5 mps 712 mmHg 72%
    19:00 +11°C° 0 mm 6 mps 710 mmHg 72%
    20:00 +13°C° 0.1 mm 6 mps 710 mmHg 72%
    21:00 +12°C° 0.1 mm 7 mps 709 mmHg 72%
    22:00 +13°C° 0.1 mm 8 mps 708 mmHg 72%
    23:00 +13°C° 2.6 mm 8 mps 708 mmHg 77%

    Tomorrow, 24 September, Monday

    Time Temperature Precipitation Wind Pressure Humidity
    00:00 +13°C° 2.6 mm 8 mps 708 mmHg 83%
    01:00 +13°C° 2.6 mm 8 mps 708 mmHg 88%
    02:00 +11°C° 0.6 mm 8 mps 710 mmHg 87%
    03:00 +9°C° 0.6 mm 8 mps 711 mmHg 86%
    04:00 +6°C° 0.6 mm 8 mps 713 mmHg 86%
    05:00 +6°C° 0.1 mm 7 mps 714 mmHg 86%
    06:00 +5°C° 0.1 mm 7 mps 715 mmHg 85%
    07:00 +5°C° 0.1 mm 6 mps 716 mmHg 85%
    08:00 +5°C° 0.2 mm 6 mps 717 mmHg 83%
    09:00 +5°C° 0.2 mm 7 mps 718 mmHg 80%
    10:00 +5°C° 0.2 mm 7 mps 719 mmHg 78%
    11:00 +6°C° 0.2 mm 7 mps 719 mmHg 73%
    12:00 +6°C° 0.2 mm 7 mps 720 mmHg 69%
    13:00 +8°C° 0.2 mm 7 mps 721 mmHg 65%
    14:00 +8°C° 0.2 mm 7 mps 721 mmHg 64%
    15:00 +8°C° 0.2 mm 7 mps 721 mmHg 63%
    16:00 +8°C° 0.2 mm 7 mps 721 mmHg 62%
    17:00 +7°C° 0.1 mm 6 mps 721 mmHg 66%
    18:00 +6°C° 0.1 mm 5 mps 721 mmHg 69%
    19:00 +5°C° 0.1 mm 4 mps 721 mmHg 72%
    20:00 +4°C° 0.1 mm 4 mps 722 mmHg 72%
    21:00 +4°C° 0.1 mm 4 mps 722 mmHg 73%
    22:00 +3°C° 0.1 mm 5 mps 723 mmHg 73%
    23:00 +3°C° 0.2 mm 5 mps 723 mmHg 76%

    Day after tomorrow, 25 September, Tuesday

    Time Temperature Precipitation Wind Pressure Humidity
    00:00 +3°C° 0.2 mm 5 mps 724 mmHg 78%
    01:00 +3°C° 0.2 mm 4 mps 724 mmHg 81%
    02:00 +3°C° 0.3 mm 4 mps 724 mmHg 82%
    03:00 +3°C° 0.3 mm 4 mps 725 mmHg 83%
    04:00 +3°C° 0.3 mm 3 mps 725 mmHg 84%
    05:00 +3°C° 0.1 mm 3 mps 726 mmHg 84%
    06:00 +3°C° 0.1 mm 3 mps 726 mmHg 83%
    07:00 +3°C° 0.1 mm 3 mps 727 mmHg 83%
    08:00 +4°C° 0 mm 3 mps 727 mmHg 79%
    09:00 +5°C° 0 mm 4 mps 728 mmHg 75%
    10:00 +6°C° 0 mm 4 mps 728 mmHg 71%
    11:00 +7°C° 0.2 mm 4 mps 728 mmHg 68%
    12:00 +7°C° 0.2 mm 4 mps 729 mmHg 66%
    13:00 +8°C° 0.2 mm 4 mps 729 mmHg 63%
    14:00 +9°C° 0.2 mm 3 mps 729 mmHg 62%
    15:00 +9°C° 0.2 mm 3 mps 729 mmHg 62%
    16:00 +9°C° 0.2 mm 3 mps 729 mmHg 62%
    17:00 +8°C° 0 mm 3 mps 729 mmHg 67%
    18:00 +6°C° 0 mm 2 mps 729 mmHg 73%
    19:00 +6°C° 0 mm 1 mps 730 mmHg 78%
    20:00 +5°C° 0 mm 1 mps 730 mmHg 80%
    21:00 +5°C° 0 mm 1 mps 731 mmHg 82%
    22:00 +5°C° 0 mm 1 mps 731 mmHg 84%
    23:00 +4°C° 0 mm 1 mps 731 mmHg 84%

    26 September, Wednesday

    Time Temperature Precipitation Wind Pressure Humidity
    00:00 +4°C° 0 mm 1 mps 731 mmHg 85%
    01:00 +4°C° 0 mm 1 mps 731 mmHg 86%
    02:00 +4°C° 0 mm 1 mps 731 mmHg 86%
    03:00 +3°C° 0 mm 1 mps 731 mmHg 86%
    04:00 +3°C° 0 mm 1 mps 731 mmHg 87%
    05:00 +4°C° 0 mm 1 mps 731 mmHg 84%
    06:00 +4°C° 0 mm 1 mps 731 mmHg 82%
    07:00 +5°C° 0 mm 1 mps 731 mmHg 79%
    08:00 +6°C° 0 mm 2 mps 731 mmHg 70%
    09:00 +8°C° 0 mm 2 mps 731 mmHg 62%
    10:00 +10°C° 0 mm 2 mps 731 mmHg 53%
    11:00 +11°C° 0 mm 3 mps 731 mmHg 50%
    12:00 +12°C° 0 mm 3 mps 730 mmHg 47%
    13:00 +13°C° 0 mm 4 mps 730 mmHg 44%
    14:00 +13°C° 0 mm 4 mps 729 mmHg 47%
    15:00 +12°C° 0 mm 4 mps 729 mmHg 49%
    16:00 +12°C° 0 mm 3 mps 728 mmHg 51%
    17:00 +11°C° 0 mm 3 mps 728 mmHg 55%
    18:00 +9°C° 0 mm 3 mps 728 mmHg 59%
    19:00 +8°C° 0 mm 3 mps 727 mmHg 63%
    20:00 +8°C° 0 mm 3 mps 727 mmHg 62%
    21:00 +8°C° 0 mm 3 mps 727 mmHg 62%
    22:00 +8°C° 0 mm 3 mps 727 mmHg 61%
    23:00 +7°C° 0 mm 3 mps 727 mmHg 61%

    27 September, Thursday

    Time Temperature Precipitation Wind Pressure Humidity
    00:00 +7°C° 0 mm 3 mps 727 mmHg 62%
    01:00 +7°C° 0 mm 3 mps 726 mmHg 63%
    02:00 +5°C° 0 mm 3 mps 726 mmHg 63%
    03:00 +5°C° 0 mm 3 mps 726 mmHg 63%
    04:00 +5°C° 0 mm 3 mps 725 mmHg 63%
    05:00 +7°C° 0 mm 3 mps 725 mmHg 61%
    06:00 +7°C° 0 mm 3 mps 725 mmHg 60%
    07:00 +8°C° 0 mm 3 mps 725 mmHg 58%
    08:00 +10°C° 0 mm 3 mps 725 mmHg 53%
    09:00 +13°C° 0 mm 3 mps 725 mmHg 48%
    10:00 +16°C° 0 mm 3 mps 726 mmHg 43%
    11:00 +17°C° 0 mm 3 mps 725 mmHg 43%
    12:00 +18°C° 0 mm 3 mps 725 mmHg 43%
    13:00 +20°C° 0 mm 3 mps 725 mmHg 43%
    14:00 +19°C° 0 mm 3 mps 725 mmHg 46%
    15:00 +19°C° 0 mm 3 mps 724 mmHg 50%
    16:00 +19°C° 0 mm 2 mps 724 mmHg 53%
    17:00 +17°C° 0 mm 2 mps 723 mmHg 58%
    18:00 +15°C° 0 mm 2 mps 723 mmHg 62%
    19:00 +13°C° 0 mm 2 mps 723 mmHg 66%
    20:00 +12°C° 0 mm 2 mps 722 mmHg 67%
    21:00 +12°C° 0 mm 2 mps 722 mmHg 68%
    22:00 +12°C° 0 mm 2 mps 722 mmHg 68%
    23:00 +10°C° 0 mm 2 mps 722 mmHg 68%

    28 September, Friday

    Time Temperature Precipitation Wind Pressure Humidity
    00:00 +10°C° 0 mm 2 mps 721 mmHg 68%
    01:00 +10°C° 0 mm 2 mps 721 mmHg 69%
    02:00 +10°C° 0 mm 2 mps 721 mmHg 68%
    03:00 +9°C° 0 mm 2 mps 720 mmHg 68%
    04:00 +9°C° 0 mm 2 mps 720 mmHg 68%
    05:00 +10°C° 0 mm 2 mps 720 mmHg 66%
    06:00 +10°C° 0 mm 2 mps 720 mmHg 64%
    07:00 +12°C° 0 mm 2 mps 720 mmHg 63%
    08:00 +14°C° 0 mm 2 mps 720 mmHg 57%
    09:00 +16°C° 0 mm 2 mps 720 mmHg 50%
    10:00 +18°C° 0 mm 2 mps 721 mmHg 44%
    11:00 +18°C° 0 mm 2 mps 721 mmHg 45%
    12:00 +19°C° 0 mm 2 mps 721 mmHg 46%
    13:00 +19°C° 0 mm 2 mps 721 mmHg 47%
    14:00 +18°C° 0 mm 3 mps 720 mmHg 53%
    15:00 +18°C° 0 mm 3 mps 720 mmHg 59%
    16:00 +17°C° 0 mm 3 mps 720 mmHg 65%
    17:00 +14°C° 0 mm 3 mps 720 mmHg 72%
    18:00 +13°C° 0 mm 2 mps 721 mmHg 79%
    19:00 +12°C° 0 mm 2 mps 721 mmHg 86%
    20:00 +12°C° 0 mm 2 mps 721 mmHg 85%
    21:00 +12°C° 0 mm 2 mps 721 mmHg 84%
    22:00 +12°C° 0 mm 2 mps 722 mmHg 83%
    23:00 +10°C° 0 mm 2 mps 722 mmHg 83%
    Show more